Nordic Harrier — V7VH2 — position and weather

sailwx.info

Track history (hours):
 
Tides and Currents Weather Stations Pressure Air Temp Water Temp Dewpoint Dewpoint Depression Visibility Wind Speed Wind Dir Waves Ship Positions

Nordic Harrier

Last reported at 2014-Jul-28 22:14 UTC. Time now 2014-Jul-30 17:21 UTC.
Position N 43°51' W 005°32'.

Length 274 m; draft 16.6 m.

Type: Ship. MMSI: 538004121.

Date/timePositionNaut miles runAvg speedWind from/ knotsBaromVisibWave heightAir tempDewpointWater temp
2014-Jul-28 22:14N 43°51' W 005°32'1011.5
2014-Jul-28 21:24N 43°52' W 005°46'347 8.7
2014-Jul-27 05:27N 39°00' W 009°57'1011.3
2014-Jul-27 04:32N 38°50' W 009°57'1111.4
2014-Jul-27 03:34N 38°39' W 009°56'1211.8
2014-Jul-27 02:31N 38°27' W 009°52'1211.9
2014-Jul-27 01:33N 38°16' W 009°49'1211.8
2014-Jul-27 00:33N 38°04' W 009°45'1211.8
2014-Jul-26 23:33N 37°53' W 009°42'1211.7
2014-Jul-26 22:33N 37°41' W 009°39'1111.5
2014-Jul-26 21:33N 37°30' W 009°36'1111.4
2014-Jul-26 20:33N 37°19' W 009°32'1211.6
2014-Jul-26 19:33N 37°08' W 009°29'1111.2
2014-Jul-26 18:33N 36°57' W 009°26'1110.7
2014-Jul-26 17:32N 36°47' W 009°20'1111.0
2014-Jul-26 16:31N 36°40' W 009°09'1111.7
2014-Jul-26 15:34N 36°37' W 008°55'1111.4
2014-Jul-26 14:33N 36°35' W 008°41'1311.3
2014-Jul-26 13:25N 36°31' W 008°26'1511.4
2014-Jul-26 12:08N 36°26' W 008°09'711.5
2014-Jul-26 11:33N 36°24' W 008°01'1111.4
2014-Jul-26 10:34N 36°21' W 007°48'1211.8
2014-Jul-26 09:33N 36°17' W 007°34'1411.9
2014-Jul-26 08:22N 36°13' W 007°17'1012.3
2014-Jul-26 07:34N 36°10' W 007°05'31210.6
2014-Jul-25 02:06N 36°43' W 000°40'811.8
2014-Jul-25 01:24N 36°45' W 000°30'1012.0
2014-Jul-25 00:33N 36°47' W 000°17'1211.7
2014-Jul-24 23:33N 36°50' W 000°03'1211.7
2014-Jul-24 22:33N 36°53' E 000°11'1211.6
2014-Jul-24 21:31N 36°55' E 000°26'1111.2
2014-Jul-24 20:33N 36°58' E 000°39'1510.8
2014-Jul-24 19:10N 37°01' E 000°57'710.8
2014-Jul-24 18:32N 37°03' E 001°05'1111.2
2014-Jul-24 17:33N 37°05' E 001°19'1211.8
2014-Jul-24 16:33N 37°08' E 001°33'1212.0
2014-Jul-24 15:33N 37°11' E 001°48'1211.9
2014-Jul-24 14:34N 37°13' E 002°02'1212.0
2014-Jul-24 13:34N 37°16' E 002°17'1211.9
2014-Jul-24 12:33N 37°19' E 002°32'1211.8
2014-Jul-24 11:33N 37°22' E 002°46'1211.6
2014-Jul-24 10:34N 37°24' E 003°00'1211.6
2014-Jul-24 09:33N 37°25' E 003°15'1211.6
2014-Jul-24 08:30N 37°25' E 003°30'1111.6
2014-Jul-24 07:33N 37°26' E 003°44'1111.5
2014-Jul-24 06:33N 37°27' E 003°59'1111.5
2014-Jul-24 05:33N 37°28' E 004°13'1211.9
2014-Jul-24 04:33N 37°28' E 004°28'1312.6
2014-Jul-24 03:31N 37°29' E 004°44'1111.3
2014-Jul-24 02:34N 37°30' E 004°58'1211.9
2014-Jul-24 01:33N 37°31' E 005°13'1412.1
2014-Jul-24 00:23N 37°32' E 005°31'1012.1
2014-Jul-23 23:33N 37°33' E 005°43'1212.4
2014-Jul-23 22:33N 37°33' E 005°59'1512.5
2014-Jul-23 21:22N 37°34' E 006°18'402 9.8
2014-Jul-22 04:25N 35°33' E 014°16'910.8
2014-Jul-22 03:34N 35°29' E 014°26'1111.3
2014-Jul-22 02:33N 35°26' E 014°39'1111.3
2014-Jul-22 01:33N 35°23' E 014°53'1311.3
2014-Jul-22 00:26N 35°20' E 015°08'1011.5
2014-Jul-21 23:33N 35°18' E 015°20'1211.7
2014-Jul-21 22:34N 35°15' E 015°33'1211.6
2014-Jul-21 21:34N 35°12' E 015°47'1211.9
2014-Jul-21 20:32N 35°09' E 016°02'312.1
2014-Jul-21 20:18N 35°09' E 016°05'1012.1
2014-Jul-21 19:30N 35°06' E 016°17'  
Track history (hours):
 
Tides and Currents Weather Stations Pressure Air Temp Water Temp Dewpoint Dewpoint Depression Visibility Wind Speed Wind Dir Waves Ship Positions

Nordic Harrier

Last reported at 2014-Jul-28 22:14 UTC. Time now 2014-Jul-30 17:21 UTC.
Position N 43°51' W 005°32'.

Length 274 m; draft 16.6 m.

Type: Ship. MMSI: 538004121.

Date/timePositionNaut miles runAvg speedWind from/ knotsBaromVisibWave heightAir tempDewpointWater temp
2014-Jul-28 22:14N 43°51' W 005°32'1011.5
2014-Jul-28 21:24N 43°52' W 005°46'347 8.7
2014-Jul-27 05:27N 39°00' W 009°57'1011.3
2014-Jul-27 04:32N 38°50' W 009°57'1111.4
2014-Jul-27 03:34N 38°39' W 009°56'1211.8
2014-Jul-27 02:31N 38°27' W 009°52'1211.9
2014-Jul-27 01:33N 38°16' W 009°49'1211.8
2014-Jul-27 00:33N 38°04' W 009°45'1211.8
2014-Jul-26 23:33N 37°53' W 009°42'1211.7
2014-Jul-26 22:33N 37°41' W 009°39'1111.5
2014-Jul-26 21:33N 37°30' W 009°36'1111.4
2014-Jul-26 20:33N 37°19' W 009°32'1211.6
2014-Jul-26 19:33N 37°08' W 009°29'1111.2
2014-Jul-26 18:33N 36°57' W 009°26'1110.7
2014-Jul-26 17:32N 36°47' W 009°20'1111.0
2014-Jul-26 16:31N 36°40' W 009°09'1111.7
2014-Jul-26 15:34N 36°37' W 008°55'1111.4
2014-Jul-26 14:33N 36°35' W 008°41'1311.3
2014-Jul-26 13:25N 36°31' W 008°26'1511.4
2014-Jul-26 12:08N 36°26' W 008°09'711.5
2014-Jul-26 11:33N 36°24' W 008°01'1111.4
2014-Jul-26 10:34N 36°21' W 007°48'1211.8
2014-Jul-26 09:33N 36°17' W 007°34'1411.9
2014-Jul-26 08:22N 36°13' W 007°17'1012.3
2014-Jul-26 07:34N 36°10' W 007°05'31210.6
2014-Jul-25 02:06N 36°43' W 000°40'811.8
2014-Jul-25 01:24N 36°45' W 000°30'1012.0
2014-Jul-25 00:33N 36°47' W 000°17'1211.7
2014-Jul-24 23:33N 36°50' W 000°03'1211.7
2014-Jul-24 22:33N 36°53' E 000°11'1211.6
2014-Jul-24 21:31N 36°55' E 000°26'1111.2
2014-Jul-24 20:33N 36°58' E 000°39'1510.8
2014-Jul-24 19:10N 37°01' E 000°57'710.8
2014-Jul-24 18:32N 37°03' E 001°05'1111.2
2014-Jul-24 17:33N 37°05' E 001°19'1211.8
2014-Jul-24 16:33N 37°08' E 001°33'1212.0
2014-Jul-24 15:33N 37°11' E 001°48'1211.9
2014-Jul-24 14:34N 37°13' E 002°02'1212.0
2014-Jul-24 13:34N 37°16' E 002°17'1211.9
2014-Jul-24 12:33N 37°19' E 002°32'1211.8
2014-Jul-24 11:33N 37°22' E 002°46'1211.6
2014-Jul-24 10:34N 37°24' E 003°00'1211.6
2014-Jul-24 09:33N 37°25' E 003°15'1211.6
2014-Jul-24 08:30N 37°25' E 003°30'1111.6
2014-Jul-24 07:33N 37°26' E 003°44'1111.5
2014-Jul-24 06:33N 37°27' E 003°59'1111.5
2014-Jul-24 05:33N 37°28' E 004°13'1211.9
2014-Jul-24 04:33N 37°28' E 004°28'1312.6
2014-Jul-24 03:31N 37°29' E 004°44'1111.3
2014-Jul-24 02:34N 37°30' E 004°58'1211.9
2014-Jul-24 01:33N 37°31' E 005°13'1412.1
2014-Jul-24 00:23N 37°32' E 005°31'1012.1
2014-Jul-23 23:33N 37°33' E 005°43'1212.4
2014-Jul-23 22:33N 37°33' E 005°59'1512.5
2014-Jul-23 21:22N 37°34' E 006°18'402 9.8
2014-Jul-22 04:25N 35°33' E 014°16'910.8
2014-Jul-22 03:34N 35°29' E 014°26'1111.3
2014-Jul-22 02:33N 35°26' E 014°39'1111.3
2014-Jul-22 01:33N 35°23' E 014°53'1311.3
2014-Jul-22 00:26N 35°20' E 015°08'1011.5
2014-Jul-21 23:33N 35°18' E 015°20'1211.7
2014-Jul-21 22:34N 35°15' E 015°33'1211.6
2014-Jul-21 21:34N 35°12' E 015°47'1211.9
2014-Jul-21 20:32N 35°09' E 016°02'312.1
2014-Jul-21 20:18N 35°09' E 016°05'1012.1
2014-Jul-21 19:30N 35°06' E 016°17'  

Dump ship's entire track history